Time,TemperatureF,DewpointF,PressureIn,WindDirection,WindDirectionDegrees,WindSpeedMPH,WindSpeedGustMPH,Humidity,HourlyPrecipIn,Conditions,Clouds,dailyrainin,SoftwareType,DateUTC
2013-05-21 00:01:00,72.0,70.5,30.00,NNE,23,5.8,5.8,95,0.00,RA,,0.00,WeatherDisplay:10.37,2013-05-21 04:01:00,
2013-05-21 00:03:00,72.0,70.5,30.00,NE,40,6.9,6.9,95,0.00,RA,,0.00,WeatherDisplay:10.37,2013-05-21 04:03:00,
2013-05-21 00:08:00,72.1,70.6,30.00,NE,50,5.8,5.8,95,0.00,RA,,0.00,WeatherDisplay:10.37,2013-05-21 04:08:00,
2013-05-21 00:11:00,72.0,70.5,30.00,ENE,57,8.1,8.1,95,0.00,CLR,,0.00,WeatherDisplay:10.37,2013-05-21 04:11:00,
2013-05-21 00:16:00,72.1,70.9,30.00,NE,41,5.8,5.8,96,0.00,CLR,,0.00,WeatherDisplay:10.37,2013-05-21 04:16:00,
2013-05-21 00:21:00,72.0,70.8,30.00,ENE,63,5.8,5.8,96,0.00,CLR,,0.00,WeatherDisplay:10.37,2013-05-21 04:21:00,
2013-05-21 00:26:00,72.0,70.8,30.00,NE,49,5.0,5.0,96,0.00,CLR,,0.00,WeatherDisplay:10.37,2013-05-21 04:26:00,
2013-05-21 00:32:00,72.0,70.8,30.01,NE,43,6.9,6.9,96,0.00,CLR,,0.00,WeatherDisplay:10.37,2013-05-21 04:32:00,
2013-05-21 00:37:00,72.0,70.8,30.01,NE,53,6.9,6.9,96,0.00,CLR,,0.00,WeatherDisplay:10.37,2013-05-21 04:37:00,
2013-05-21 00:42:00,71.9,70.7,30.00,NE,44,4.6,4.6,96,0.00,CLR,,0.00,WeatherDisplay:10.37,2013-05-21 04:42:00,
2013-05-21 00:47:00,72.0,70.8,30.00,NE,37,4.0,4.0,96,0.00,CLR,,0.00,WeatherDisplay:10.37,2013-05-21 04:47:00,
2013-05-21 00:52:00,72.0,70.8,30.00,NE,36,6.0,6.0,96,0.00,CLR,,0.00,WeatherDisplay:10.37,2013-05-21 04:52:00,
2013-05-21 00:57:00,72.1,70.9,30.00,NNE,15,6.9,6.9,96,0.00,CLR,,0.00,WeatherDisplay:10.37,2013-05-21 04:57:00,
2013-05-21 01:03:00,72.1,70.9,30.00,NE,41,3.5,3.5,96,0.00,CLR,,0.00,WeatherDisplay:10.37,2013-05-21 05:03:00,
2013-05-21 01:08:00,72.2,71.0,29.99,NE,53,5.0,5.0,96,0.00,CLR,,0.00,WeatherDisplay:10.37,2013-05-21 05:08:00,
2013-05-21 01:13:00,72.1,70.9,29.99,ENE,78,3.5,3.5,96,0.00,CLR,,0.00,WeatherDisplay:10.37,2013-05-21 05:13:00,
2013-05-21 01:18:00,72.1,70.9,29.99,NE,49,3.5,3.5,96,0.00,CLR,,0.00,WeatherDisplay:10.37,2013-05-21 05:18:00,
2013-05-21 01:23:00,72.0,70.8,29.99,NE,54,5.8,5.8,96,0.00,CLR,,0.00,WeatherDisplay:10.37,2013-05-21 05:23:00,
2013-05-21 01:28:00,71.9,70.7,29.99,NE,56,6.9,6.9,96,0.00,CLR,,0.00,WeatherDisplay:10.37,2013-05-21 05:28:00,
2013-05-21 01:33:00,71.8,70.6,29.99,NE,49,6.9,6.9,96,0.00,CLR,,0.00,WeatherDisplay:10.37,2013-05-21 05:33:00,
2013-05-21 01:38:00,71.7,70.5,29.99,NE,37,4.6,4.6,96,0.00,CLR,,0.00,WeatherDisplay:10.37,2013-05-21 05:38:00,
2013-05-21 01:43:00,71.6,70.4,29.99,NE,55,6.0,6.0,96,0.00,CLR,,0.00,WeatherDisplay:10.37,2013-05-21 05:43:00,
2013-05-21 01:49:00,71.5,70.3,29.99,ENE,63,4.6,4.6,96,0.00,CLR,,0.00,WeatherDisplay:10.37,2013-05-21 05:49:00,
2013-05-21 01:54:00,71.5,70.3,29.98,NE,41,3.5,3.5,96,0.00,CLR,,0.00,WeatherDisplay:10.37,2013-05-21 05:54:00,
2013-05-21 01:59:00,71.4,70.2,29.98,NE,36,3.5,3.5,96,0.00,CLR,,0.00,WeatherDisplay:10.37,2013-05-21 05:59:00,
2013-05-21 02:04:00,71.4,70.2,29.97,NE,36,3.5,3.5,96,0.00,CLR,,0.00,WeatherDisplay:10.37,2013-05-21 06:04:00,
2013-05-21 02:10:00,71.3,70.1,29.97,NE,34,4.6,4.6,96,0.00,CLR,,0.00,WeatherDisplay:10.37,2013-05-21 06:10:00,
2013-05-21 02:15:00,71.2,70.0,29.96,ENE,58,4.0,4.0,96,0.00,CLR,,0.00,WeatherDisplay:10.37,2013-05-21 06:15:00,
2013-05-21 02:20:00,71.2,70.0,29.96,NE,49,4.0,4.0,96,0.00,CLR,,0.00,WeatherDisplay:10.37,2013-05-21 06:20:00,
2013-05-21 02:25:00,71.2,70.3,29.96,NNE,30,6.9,6.9,97,0.00,CLR,,0.00,WeatherDisplay:10.37,2013-05-21 06:25:00,
2013-05-21 02:30:00,71.1,70.2,29.96,NE,49,3.5,3.5,97,0.00,CLR,,0.00,WeatherDisplay:10.37,2013-05-21 06:30:00,
2013-05-21 02:35:00,71.2,70.3,29.96,NE,39,3.5,3.5,97,0.00,CLR,,0.00,WeatherDisplay:10.37,2013-05-21 06:35:00,
2013-05-21 02:40:00,71.1,70.2,29.96,NE,39,4.6,4.6,97,0.00,CLR,,0.00,WeatherDisplay:10.37,2013-05-21 06:40:00,
2013-05-21 02:45:00,71.1,70.2,29.96,ENE,60,3.5,3.5,97,0.00,CLR,,0.00,WeatherDisplay:10.37,2013-05-21 06:45:00,
2013-05-21 02:51:00,71.0,70.1,29.95,ENE,70,2.3,2.3,97,0.00,CLR,,0.00,WeatherDisplay:10.37,2013-05-21 06:51:00,
2013-05-21 02:56:00,71.0,70.1,29.96,NE,56,3.5,3.5,97,0.00,CLR,,0.00,WeatherDisplay:10.37,2013-05-21 06:56:00,
2013-05-21 03:01:00,70.9,69.7,29.96,NE,53,4.6,4.6,96,0.00,CLR,,0.00,WeatherDisplay:10.37,2013-05-21 07:01:00,
2013-05-21 03:06:00,70.8,69.6,29.96,NE,44,5.0,5.0,96,0.00,CLR,,0.00,WeatherDisplay:10.37,2013-05-21 07:06:00,
2013-05-21 03:11:00,70.7,69.5,29.95,NE,47,3.5,3.5,96,0.00,CLR,,0.00,WeatherDisplay:10.37,2013-05-21 07:11:00,
2013-05-21 03:16:00,70.7,69.5,29.95,NE,47,3.5,3.5,96,0.00,CLR,,0.00,WeatherDisplay:10.37,2013-05-21 07:16:00,
2013-05-21 03:21:00,70.6,69.4,29.95,NE,52,3.5,3.5,96,0.00,CLR,,0.00,WeatherDisplay:10.37,2013-05-21 07:21:00,
2013-05-21 03:27:00,70.5,69.3,29.95,NE,51,3.5,3.5,96,0.00,CLR,,0.00,WeatherDisplay:10.37,2013-05-21 07:27:00,
2013-05-21 03:32:00,70.4,69.5,29.95,ENE,77,4.6,4.6,97,0.00,CLR,,0.00,WeatherDisplay:10.37,2013-05-21 07:32:00,
2013-05-21 03:37:00,70.4,69.5,29.95,NE,52,3.5,3.5,97,0.00,CLR,,0.00,WeatherDisplay:10.37,2013-05-21 07:37:00,
2013-05-21 03:42:00,70.3,69.4,29.95,NE,47,2.3,2.3,97,0.00,CLR,,0.00,WeatherDisplay:10.37,2013-05-21 07:42:00,
2013-05-21 03:47:00,70.3,69.4,29.95,NE,50,0.0,0.0,97,0.00,CLR,,0.00,WeatherDisplay:10.37,2013-05-21 07:47:00,
2013-05-21 03:52:00,70.3,69.4,29.95,NE,50,4.6,4.6,97,0.00,CLR,,0.00,WeatherDisplay:10.37,2013-05-21 07:52:00,
2013-05-21 03:57:00,70.2,69.3,29.95,NE,46,3.5,3.5,97,0.00,CLR,,0.00,WeatherDisplay:10.37,2013-05-21 07:57:00,
2013-05-21 04:02:00,70.2,69.3,29.96,NNE,19,3.5,3.5,97,0.00,CLR,,0.00,WeatherDisplay:10.37,2013-05-21 08:02:00,
2013-05-21 04:07:00,70.1,69.2,29.96,NE,40,2.3,2.3,97,0.00,CLR,,0.00,WeatherDisplay:10.37,2013-05-21 08:07:00,
2013-05-21 04:12:00,70.1,69.2,29.96,NE,36,3.5,3.5,97,0.00,CLR,,0.00,WeatherDisplay:10.37,2013-05-21 08:12:00,
2013-05-21 04:17:00,70.1,69.2,29.96,NE,39,3.5,3.5,97,0.00,CLR,,0.00,WeatherDisplay:10.37,2013-05-21 08:17:00,
2013-05-21 04:22:00,70.0,69.1,29.96,NE,39,3.5,3.5,97,0.00,CLR,,0.00,WeatherDisplay:10.37,2013-05-21 08:22:00,
2013-05-21 04:27:00,70.0,69.1,29.96,NE,44,3.5,3.5,97,0.00,CLR,,0.00,WeatherDisplay:10.37,2013-05-21 08:27:00,
2013-05-21 04:32:00,70.0,69.1,29.96,North,1,2.3,2.3,97,0.00,CLR,,0.00,WeatherDisplay:10.37,2013-05-21 08:32:00,
2013-05-21 04:37:00,70.0,69.1,29.96,NNE,21,2.3,2.3,97,0.00,CLR,,0.00,WeatherDisplay:10.37,2013-05-21 08:37:00,
2013-05-21 04:42:00,69.9,69.0,29.96,NNE,23,3.5,3.5,97,0.00,CLR,,0.00,WeatherDisplay:10.37,2013-05-21 08:42:00,
2013-05-21 04:47:00,69.8,68.9,29.96,NNE,16,3.5,3.5,97,0.00,CLR,,0.00,WeatherDisplay:10.37,2013-05-21 08:47:00,
2013-05-21 04:52:00,69.8,68.9,29.96,NNE,19,3.5,3.5,97,0.00,CLR,,0.00,WeatherDisplay:10.37,2013-05-21 08:52:00,
2013-05-21 04:57:00,69.7,68.8,29.96,NNE,26,4.6,4.6,97,0.00,CLR,,0.00,WeatherDisplay:10.37,2013-05-21 08:57:00,
2013-05-21 05:02:00,69.6,68.7,29.96,NE,37,3.5,3.5,97,0.00,CLR,,0.00,WeatherDisplay:10.37,2013-05-21 09:02:00,
2013-05-21 05:07:00,69.5,68.6,29.96,NNE,18,3.5,3.5,97,0.00,CLR,,0.00,WeatherDisplay:10.37,2013-05-21 09:07:00,
2013-05-21 05:13:00,69.5,68.6,29.96,NNE,29,3.5,3.5,97,0.00,CLR,,0.00,WeatherDisplay:10.37,2013-05-21 09:13:00,
2013-05-21 05:18:00,69.4,68.5,29.96,NNE,23,4.6,4.6,97,0.00,CLR,,0.00,WeatherDisplay:10.37,2013-05-21 09:18:00,
2013-05-21 05:23:00,69.4,68.5,29.96,NNW,343,4.0,4.0,97,0.00,CLR,,0.00,WeatherDisplay:10.37,2013-05-21 09:23:00,
2013-05-21 05:28:00,69.3,68.4,29.96,North,5,5.0,5.0,97,0.00,CLR,,0.00,WeatherDisplay:10.37,2013-05-21 09:28:00,
2013-05-21 05:33:00,69.3,68.4,29.96,NNW,348,4.6,4.6,97,0.00,CLR,,0.00,WeatherDisplay:10.37,2013-05-21 09:33:00,
2013-05-21 05:38:00,69.3,68.4,29.96,North,11,3.5,3.5,97,0.00,CLR,,0.00,WeatherDisplay:10.37,2013-05-21 09:38:00,
2013-05-21 05:43:00,69.3,68.4,29.96,North,4,3.5,3.5,97,0.00,CLR,,0.00,WeatherDisplay:10.37,2013-05-21 09:43:00,
2013-05-21 05:48:00,69.2,68.3,29.96,NNE,15,4.6,4.6,97,0.00,CLR,,0.00,WeatherDisplay:10.37,2013-05-21 09:48:00,
2013-05-21 05:53:00,69.2,68.3,29.96,NE,47,5.8,5.8,97,0.00,CLR,,0.00,WeatherDisplay:10.37,2013-05-21 09:53:00,
2013-05-21 05:58:00,69.2,68.3,29.96,NNE,25,4.6,4.6,97,0.00,CLR,,0.00,WeatherDisplay:10.37,2013-05-21 09:58:00,
2013-05-21 06:04:00,69.1,68.2,29.96,North,8,4.6,4.6,97,0.00,CLR,,0.00,WeatherDisplay:10.37,2013-05-21 10:04:00,
2013-05-21 06:09:00,69.1,68.2,29.97,NNE,26,5.0,5.0,97,0.00,CLR,,0.00,WeatherDisplay:10.37,2013-05-21 10:09:00,
2013-05-21 06:14:00,69.1,68.2,29.97,NNE,20,5.8,5.8,97,0.00,CLR,,0.00,WeatherDisplay:10.37,2013-05-21 10:14:00,
2013-05-21 06:19:00,69.1,68.2,29.97,NNE,20,5.0,5.2,97,0.00,CLR,,0.00,WeatherDisplay:10.37,2013-05-21 10:19:00,
2013-05-21 06:24:00,69.1,68.2,29.97,ENE,60,4.6,4.6,97,0.00,CLR,,0.00,WeatherDisplay:10.37,2013-05-21 10:24:00,
2013-05-21 06:29:00,69.0,68.1,29.97,NNE,15,3.5,3.5,97,0.00,CLR,,0.00,WeatherDisplay:10.37,2013-05-21 10:29:00,
2013-05-21 06:34:00,69.0,68.1,29.97,NNE,21,5.8,5.8,97,0.00,CLR,,0.00,WeatherDisplay:10.37,2013-05-21 10:34:00,
2013-05-21 06:39:00,68.9,68.0,29.98,NNW,346,4.0,4.0,97,0.00,CLR,,0.00,WeatherDisplay:10.37,2013-05-21 10:39:00,
2013-05-21 06:44:00,68.9,68.0,29.98,NE,35,4.6,4.6,97,0.00,CLR,,0.00,WeatherDisplay:10.37,2013-05-21 10:44:00,
2013-05-21 06:50:00,68.9,68.0,29.98,NNE,15,3.5,3.5,97,0.00,CLR,,0.00,WeatherDisplay:10.37,2013-05-21 10:50:00,
2013-05-21 06:55:00,69.0,68.1,29.98,NNW,346,3.5,3.5,97,0.00,CLR,,0.00,WeatherDisplay:10.37,2013-05-21 10:55:00,
2013-05-21 07:00:00,69.2,68.3,29.98,NNE,20,3.5,3.5,97,0.00,CLR,,0.00,WeatherDisplay:10.37,2013-05-21 11:00:00,
2013-05-21 07:05:00,69.2,68.3,29.98,NNE,20,8.1,8.1,97,0.00,CLR,,0.00,WeatherDisplay:10.37,2013-05-21 11:05:00,
2013-05-21 07:10:00,69.3,68.4,29.99,NE,34,5.8,5.8,97,0.00,CLR,,0.00,WeatherDisplay:10.37,2013-05-21 11:10:00,
2013-05-21 07:15:00,69.6,68.7,29.99,NE,44,4.6,4.6,97,0.00,CLR,,0.00,WeatherDisplay:10.37,2013-05-21 11:15:00,
2013-05-21 07:20:00,69.8,68.6,29.99,NNE,26,4.6,4.6,96,0.00,CLR,,0.00,WeatherDisplay:10.37,2013-05-21 11:20:00,
2013-05-21 07:26:00,70.1,68.9,29.99,NNE,18,6.9,6.9,96,0.00,CLR,,0.00,WeatherDisplay:10.37,2013-05-21 11:26:00,
2013-05-21 07:31:00,70.5,69.3,29.99,NNE,33,3.5,3.5,96,0.00,CLR,,0.00,WeatherDisplay:10.37,2013-05-21 11:31:00,
2013-05-21 07:36:00,71.0,69.8,29.99,NNE,29,4.6,4.6,96,0.00,CLR,,0.00,WeatherDisplay:10.37,2013-05-21 11:36:00,
2013-05-21 07:41:00,71.2,69.7,29.99,NE,34,4.6,4.6,95,0.00,CLR,,0.00,WeatherDisplay:10.37,2013-05-21 11:41:00,
2013-05-21 07:46:00,71.3,69.8,29.99,ENE,58,5.8,5.8,95,0.00,CLR,,0.00,WeatherDisplay:10.37,2013-05-21 11:46:00,
2013-05-21 07:51:00,71.6,69.8,29.99,NE,43,8.1,8.1,94,0.00,CLR,,0.00,WeatherDisplay:10.37,2013-05-21 11:51:00,
2013-05-21 07:56:00,71.8,70.0,29.99,NE,46,6.9,6.9,94,0.00,CLR,,0.00,WeatherDisplay:10.37,2013-05-21 11:56:00,
2013-05-21 08:02:00,72.2,70.4,29.99,NE,45,9.2,9.2,94,0.00,CLR,,0.00,WeatherDisplay:10.37,2013-05-21 12:02:00,
2013-05-21 08:07:00,72.3,70.2,29.99,NE,47,5.8,5.8,93,0.00,CLR,,0.00,WeatherDisplay:10.37,2013-05-21 12:07:00,
2013-05-21 08:12:00,72.7,70.6,29.99,NNE,29,5.8,5.8,93,0.00,CLR,,0.00,WeatherDisplay:10.37,2013-05-21 12:12:00,
2013-05-21 08:17:00,73.1,70.6,29.99,NE,44,4.6,4.9,92,0.00,CLR,,0.00,WeatherDisplay:10.37,2013-05-21 12:17:00,
2013-05-21 08:22:00,73.6,71.1,29.99,ENE,64,3.5,3.5,92,0.00,CLR,,0.00,WeatherDisplay:10.37,2013-05-21 12:22:00,
2013-05-21 08:28:00,73.9,71.1,29.99,NNE,33,8.1,8.1,91,0.00,CLR,,0.00,WeatherDisplay:10.37,2013-05-21 12:28:00,
2013-05-21 08:33:00,74.3,71.5,29.99,NE,53,5.8,5.8,91,0.00,CLR,,0.00,WeatherDisplay:10.37,2013-05-21 12:33:00,
2013-05-21 08:38:00,74.7,71.6,30.00,NNE,13,9.2,9.2,90,0.00,CLR,,0.00,WeatherDisplay:10.37,2013-05-21 12:38:00,
2013-05-21 08:43:00,74.9,71.8,30.00,NE,39,6.9,6.9,90,0.00,CLR,,0.00,WeatherDisplay:10.37,2013-05-21 12:43:00,
2013-05-21 08:48:00,75.3,72.2,30.00,NNE,25,4.6,4.6,90,0.00,CLR,,0.00,WeatherDisplay:10.37,2013-05-21 12:48:00,
2013-05-21 08:53:00,75.9,72.4,30.00,ENE,77,8.1,8.1,89,0.00,CLR,,0.00,WeatherDisplay:10.37,2013-05-21 12:53:00,
2013-05-21 08:59:00,76.6,72.8,30.00,ENE,58,6.9,6.9,88,0.00,CLR,,0.00,WeatherDisplay:10.37,2013-05-21 12:59:00,
2013-05-21 09:04:00,76.6,72.4,30.00,ENE,75,5.8,5.8,87,0.00,CLR,,0.00,WeatherDisplay:10.37,2013-05-21 13:04:00,
2013-05-21 09:09:00,76.8,72.6,30.00,ENE,58,6.9,6.9,87,0.00,CLR,,0.00,WeatherDisplay:10.37,2013-05-21 13:09:00,
2013-05-21 09:14:00,77.2,72.7,30.00,East,84,8.1,8.1,86,0.00,CLR,,0.00,WeatherDisplay:10.37,2013-05-21 13:14:00,
2013-05-21 09:19:00,77.4,72.9,30.00,ENE,71,8.1,8.1,86,0.00,CLR,,0.00,WeatherDisplay:10.37,2013-05-21 13:19:00,
2013-05-21 09:24:00,77.8,73.3,30.00,NE,56,7.0,7.0,86,0.00,CLR,,0.00,WeatherDisplay:10.37,2013-05-21 13:24:00,
2013-05-21 09:29:00,78.2,73.3,30.00,ENE,57,8.1,8.1,85,0.00,CLR,,0.00,WeatherDisplay:10.37,2013-05-21 13:29:00,
2013-05-21 09:34:00,78.5,73.6,30.00,NE,49,6.9,6.9,85,0.00,CLR,,0.00,WeatherDisplay:10.37,2013-05-21 13:34:00,
2013-05-21 09:40:00,78.8,73.6,30.00,ENE,77,6.9,6.9,84,0.00,CLR,,0.00,WeatherDisplay:10.37,2013-05-21 13:40:00,
2013-05-21 09:45:00,79.2,73.9,30.00,NE,47,6.9,6.9,84,0.00,CLR,,0.00,WeatherDisplay:10.37,2013-05-21 13:45:00,
2013-05-21 09:50:00,79.4,73.8,30.00,NE,41,6.0,6.0,83,0.00,CLR,,0.00,WeatherDisplay:10.37,2013-05-21 13:50:00,
2013-05-21 09:55:00,79.5,73.9,30.00,ENE,71,8.1,8.1,83,0.00,CLR,,0.00,WeatherDisplay:10.37,2013-05-21 13:55:00,
2013-05-21 10:00:00,79.9,74.3,30.00,NE,53,6.9,6.9,83,0.00,CLR,,0.00,WeatherDisplay:10.37,2013-05-21 14:00:00,
2013-05-21 10:05:00,80.4,74.0,30.00,ENE,63,5.8,5.8,81,0.00,CLR,,0.00,WeatherDisplay:10.37,2013-05-21 14:05:00,
2013-05-21 10:11:00,80.8,74.4,30.00,East,86,8.1,8.1,81,0.00,CLR,,0.00,WeatherDisplay:10.37,2013-05-21 14:11:00,
2013-05-21 10:16:00,81.4,74.6,30.01,NE,50,7.0,7.0,80,0.00,CLR,,0.00,WeatherDisplay:10.37,2013-05-21 14:16:00,
2013-05-21 10:21:00,81.8,74.6,30.00,ESE,104,5.8,5.8,79,0.00,CLR,,0.00,WeatherDisplay:10.37,2013-05-21 14:21:00,
2013-05-21 10:26:00,81.9,74.4,30.00,ENE,65,8.1,8.1,78,0.00,CLR,,0.00,WeatherDisplay:10.37,2013-05-21 14:26:00,
2013-05-21 10:31:00,81.8,73.9,30.01,ENE,66,8.1,8.1,77,0.00,CLR,,0.00,WeatherDisplay:10.37,2013-05-21 14:31:00,
2013-05-21 10:36:00,81.6,74.1,30.00,NE,54,6.0,6.0,78,0.00,CLR,,0.00,WeatherDisplay:10.37,2013-05-21 14:36:00,
2013-05-21 10:41:00,81.8,74.3,30.00,ENE,60,5.8,5.8,78,0.00,CLR,,0.00,WeatherDisplay:10.37,2013-05-21 14:41:00,
2013-05-21 10:46:00,82.6,74.7,30.00,NE,53,8.0,8.0,77,0.00,CLR,,0.00,WeatherDisplay:10.37,2013-05-21 14:46:00,
2013-05-21 10:52:00,82.9,74.6,30.00,ENE,60,8.1,8.1,76,0.00,CLR,,0.00,WeatherDisplay:10.37,2013-05-21 14:52:00,
2013-05-21 10:57:00,83.2,74.4,30.00,ENE,65,5.8,5.8,75,0.00,CLR,,0.00,WeatherDisplay:10.37,2013-05-21 14:57:00,
2013-05-21 11:02:00,83.6,75.2,30.00,NNE,29,6.9,6.9,76,0.00,CLR,,0.00,WeatherDisplay:10.37,2013-05-21 15:02:00,
2013-05-21 11:08:00,83.7,74.5,30.00,ENE,57,9.2,9.2,74,0.00,CLR,,0.00,WeatherDisplay:10.37,2013-05-21 15:08:00,
2013-05-21 11:13:00,83.7,74.5,30.01,East,89,8.1,8.1,74,0.00,CLR,,0.00,WeatherDisplay:10.37,2013-05-21 15:13:00,
2013-05-21 11:18:00,83.9,74.3,30.01,ESE,106,6.9,6.9,73,0.00,CLR,,0.00,WeatherDisplay:10.37,2013-05-21 15:18:00,
2013-05-21 11:23:00,84.1,74.1,30.01,ENE,60,8.1,8.1,72,0.00,CLR,,0.00,WeatherDisplay:10.37,2013-05-21 15:23:00,
2013-05-21 11:28:00,84.4,74.0,30.00,SE,126,6.9,6.9,71,0.00,CLR,,0.00,WeatherDisplay:10.37,2013-05-21 15:28:00,
2013-05-21 11:33:00,84.6,74.6,30.00,SE,146,3.5,3.5,72,0.00,CLR,,0.00,WeatherDisplay:10.37,2013-05-21 15:33:00,
2013-05-21 11:38:00,85.3,74.4,30.00,ENE,75,6.9,6.9,70,0.00,CLR,,0.00,WeatherDisplay:10.37,2013-05-21 15:38:00,
2013-05-21 11:43:00,85.3,74.4,30.00,ENE,58,5.8,5.8,70,0.00,CLR,,0.00,WeatherDisplay:10.37,2013-05-21 15:43:00,
2013-05-21 11:49:00,84.8,73.5,30.00,ESE,113,5.8,5.8,69,0.00,CLR,,0.00,WeatherDisplay:10.37,2013-05-21 15:49:00,
2013-05-21 11:54:00,84.5,74.1,30.00,ESE,117,4.6,4.6,71,0.00,CLR,,0.00,WeatherDisplay:10.37,2013-05-21 15:54:00,
2013-05-21 11:59:00,84.6,73.3,30.00,NE,49,5.8,5.8,69,0.00,CLR,,0.00,WeatherDisplay:10.37,2013-05-21 15:59:00,
2013-05-21 12:04:00,85.2,73.9,29.99,NNE,32,11.0,11.0,69,0.00,CLR,,0.00,WeatherDisplay:10.37,2013-05-21 16:04:00,
2013-05-21 12:10:00,85.4,73.2,30.00,East,81,4.6,4.6,67,0.00,CLR,,0.00,WeatherDisplay:10.37,2013-05-21 16:10:00,
2013-05-21 12:15:00,86.2,73.5,30.00,ENE,75,5.8,5.8,66,0.00,CLR,,0.00,WeatherDisplay:10.37,2013-05-21 16:15:00,
2013-05-21 12:20:00,86.7,72.6,30.00,East,86,4.6,4.6,63,0.00,CLR,,0.00,WeatherDisplay:10.37,2013-05-21 16:20:00,
2013-05-21 12:25:00,86.3,72.2,29.99,ESE,114,3.5,3.5,63,0.00,CLR,,0.00,WeatherDisplay:10.37,2013-05-21 16:25:00,
2013-05-21 12:30:00,86.3,73.6,29.99,ENE,60,3.5,3.5,66,0.00,CLR,,0.00,WeatherDisplay:10.37,2013-05-21 16:30:00,
2013-05-21 12:35:00,85.8,72.7,29.99,NE,39,6.9,6.9,65,0.00,CLR,,0.00,WeatherDisplay:10.37,2013-05-21 16:35:00,
2013-05-21 12:41:00,85.5,72.8,29.99,ESE,114,3.5,3.5,66,0.00,CLR,,0.00,WeatherDisplay:10.37,2013-05-21 16:41:00,
2013-05-21 12:46:00,85.8,73.1,29.99,East,93,3.5,3.5,66,0.00,CLR,,0.00,WeatherDisplay:10.37,2013-05-21 16:46:00,
2013-05-21 12:51:00,86.2,73.0,29.99,NE,44,5.8,5.8,65,0.00,CLR,,0.00,WeatherDisplay:10.37,2013-05-21 16:51:00,
2013-05-21 12:56:00,85.8,72.2,29.98,North,359,6.9,6.9,64,0.00,CLR,,0.00,WeatherDisplay:10.37,2013-05-21 16:56:00,
2013-05-21 13:01:00,85.7,73.0,29.98,South,188,3.5,3.5,66,0.00,CLR,,0.00,WeatherDisplay:10.37,2013-05-21 17:01:00,
2013-05-21 13:06:00,86.0,75.1,29.98,ESE,108,1.2,1.2,70,0.00,CLR,,0.00,WeatherDisplay:10.37,2013-05-21 17:06:00,
2013-05-21 13:11:00,85.5,75.0,29.98,SE,128,2.3,2.3,71,0.00,CLR,,0.00,WeatherDisplay:10.37,2013-05-21 17:11:00,
2013-05-21 13:16:00,84.8,74.8,29.98,SSW,203,2.3,2.3,72,0.00,CLR,,0.00,WeatherDisplay:10.37,2013-05-21 17:16:00,
2013-05-21 13:21:00,84.6,74.6,29.97,East,82,3.5,3.5,72,0.00,CLR,,0.00,WeatherDisplay:10.37,2013-05-21 17:21:00,
2013-05-21 13:26:00,84.9,74.0,29.97,West,278,3.5,3.5,70,0.00,CLR,,0.00,WeatherDisplay:10.37,2013-05-21 17:26:00,
2013-05-21 13:31:00,84.4,74.4,29.97,NW,308,2.3,2.3,72,0.00,CLR,,0.00,WeatherDisplay:10.37,2013-05-21 17:31:00,
2013-05-21 13:37:00,84.3,73.9,29.96,West,259,3.5,3.5,71,0.00,CLR,,0.00,WeatherDisplay:10.37,2013-05-21 17:37:00,
2013-05-21 13:42:00,84.5,74.1,29.96,ESE,108,1.2,1.2,71,0.00,CLR,,0.00,WeatherDisplay:10.37,2013-05-21 17:42:00,
2013-05-21 13:47:00,85.5,75.0,29.96,WNW,287,3.5,3.5,71,0.00,CLR,,0.00,WeatherDisplay:10.37,2013-05-21 17:47:00,
2013-05-21 13:52:00,87.2,75.8,29.96,South,172,2.3,2.3,69,0.00,CLR,,0.00,WeatherDisplay:10.37,2013-05-21 17:52:00,
2013-05-21 13:57:00,87.7,74.0,29.95,South,170,2.3,2.3,64,0.00,CLR,,0.00,WeatherDisplay:10.37,2013-05-21 17:57:00,
2013-05-21 14:02:00,87.7,74.5,29.95,WSW,240,2.3,2.3,65,0.00,CLR,,0.00,WeatherDisplay:10.37,2013-05-21 18:02:00,
2013-05-21 14:07:00,88.1,73.4,29.95,West,281,3.5,3.5,62,0.00,CLR,,0.00,WeatherDisplay:10.37,2013-05-21 18:07:00,
2013-05-21 14:12:00,87.8,74.1,29.95,SE,135,6.9,6.9,64,0.00,CLR,,0.00,WeatherDisplay:10.37,2013-05-21 18:12:00,
2013-05-21 14:18:00,88.8,75.0,29.94,ESE,109,3.5,3.5,64,0.00,CLR,,0.00,WeatherDisplay:10.37,2013-05-21 18:18:00,
2013-05-21 14:23:00,89.7,74.9,29.94,SE,136,5.8,5.8,62,0.00,CLR,,0.00,WeatherDisplay:10.37,2013-05-21 18:23:00,
2013-05-21 14:28:00,90.6,74.8,29.94,SSE,165,2.0,2.0,60,0.00,CLR,,0.00,WeatherDisplay:10.37,2013-05-21 18:28:00,
2013-05-21 14:33:00,90.8,74.5,29.94,NNW,330,1.2,1.2,59,0.00,CLR,,0.00,WeatherDisplay:10.37,2013-05-21 18:33:00,
2013-05-21 14:38:00,90.4,73.6,29.94,North,356,4.0,4.0,58,0.00,CLR,,0.00,WeatherDisplay:10.37,2013-05-21 18:38:00,
2013-05-21 14:43:00,90.2,73.9,29.94,WNW,303,3.5,3.5,59,0.00,CLR,,0.00,WeatherDisplay:10.37,2013-05-21 18:43:00,
2013-05-21 14:49:00,90.5,74.7,29.94,SSE,156,1.2,1.2,60,0.00,CLR,,0.00,WeatherDisplay:10.37,2013-05-21 18:49:00,
2013-05-21 14:54:00,90.6,74.8,29.93,SW,222,3.5,3.5,60,0.00,CLR,,0.00,WeatherDisplay:10.37,2013-05-21 18:54:00,
2013-05-21 14:59:00,89.8,73.6,29.93,ESE,120,5.8,5.8,59,0.00,CLR,,0.00,WeatherDisplay:10.37,2013-05-21 18:59:00,
2013-05-21 15:04:00,88.8,73.6,29.93,SSE,162,3.5,3.5,61,0.00,CLR,,0.00,WeatherDisplay:10.37,2013-05-21 19:04:00,
2013-05-21 15:09:00,89.3,74.1,29.92,SW,231,3.5,3.5,61,0.00,CLR,,0.00,WeatherDisplay:10.37,2013-05-21 19:09:00,
2013-05-21 15:14:00,90.2,73.9,29.92,ESE,106,3.5,3.5,59,0.00,CLR,,0.00,WeatherDisplay:10.37,2013-05-21 19:14:00,
2013-05-21 15:19:00,91.0,73.7,29.92,SW,215,4.0,4.0,57,0.00,CLR,,0.00,WeatherDisplay:10.37,2013-05-21 19:19:00,
2013-05-21 15:25:00,91.8,73.3,29.92,SSW,205,5.0,5.0,55,0.00,CLR,,0.00,WeatherDisplay:10.37,2013-05-21 19:25:00,
2013-05-21 15:30:00,91.5,73.1,29.91,East,79,3.5,3.5,55,0.00,CLR,,0.00,WeatherDisplay:10.37,2013-05-21 19:30:00,
2013-05-21 15:35:00,91.8,73.3,29.91,SSE,155,5.8,5.8,55,0.00,CLR,,0.00,WeatherDisplay:10.37,2013-05-21 19:35:00,
2013-05-21 15:40:00,91.1,73.7,29.91,SE,139,4.6,4.6,57,0.00,CLR,,0.00,WeatherDisplay:10.37,2013-05-21 19:40:00,
2013-05-21 15:45:00,91.5,74.1,29.91,SSE,165,4.0,4.0,57,0.00,CLR,,0.00,WeatherDisplay:10.37,2013-05-21 19:45:00,
2013-05-21 15:51:00,91.2,74.4,29.91,SSE,147,5.0,5.0,58,0.00,CLR,,0.00,WeatherDisplay:10.37,2013-05-21 19:51:00,
2013-05-21 15:56:00,89.8,72.5,29.92,SW,214,3.5,3.5,57,0.00,CLR,,0.00,WeatherDisplay:10.37,2013-05-21 19:56:00,
2013-05-21 16:01:00,89.7,70.8,29.92,SE,142,7.0,7.0,54,0.00,CLR,,0.00,WeatherDisplay:10.37,2013-05-21 20:01:00,
2013-05-21 16:06:00,88.7,73.5,29.92,West,262,4.6,4.6,61,0.00,CLR,,0.00,WeatherDisplay:10.37,2013-05-21 20:06:00,
2013-05-21 16:11:00,88.4,72.2,29.91,SE,127,5.8,5.8,59,0.00,CLR,,0.00,WeatherDisplay:10.37,2013-05-21 20:11:00,
2013-05-21 16:16:00,87.4,71.8,29.92,SE,142,6.9,6.9,60,0.00,CLR,,0.00,WeatherDisplay:10.37,2013-05-21 20:16:00,
2013-05-21 16:21:00,86.4,72.8,29.92,ENE,58,5.8,5.8,64,0.00,CLR,,0.00,WeatherDisplay:10.37,2013-05-21 20:21:00,
2013-05-21 16:26:00,82.0,72.1,29.93,NE,55,15.0,15.0,72,0.00,CLR,,0.00,WeatherDisplay:10.37,2013-05-21 20:26:00,
2013-05-21 16:31:00,79.4,71.6,29.92,East,91,12.7,12.7,77,0.00,CLR,,0.00,WeatherDisplay:10.37,2013-05-21 20:31:00,
2013-05-21 16:36:00,79.1,72.0,29.92,East,91,11.5,11.5,79,0.00,CLR,,0.00,WeatherDisplay:10.37,2013-05-21 20:36:00,
2013-05-21 16:41:00,79.4,71.9,29.92,NE,54,9.2,9.2,78,0.00,CLR,,0.00,WeatherDisplay:10.37,2013-05-21 20:41:00,
2013-05-21 16:47:00,79.4,71.9,29.93,NE,47,10.4,10.4,78,0.00,CLR,,0.00,WeatherDisplay:10.37,2013-05-21 20:47:00,
2013-05-21 16:52:00,80.3,72.8,29.93,NNE,30,8.1,8.1,78,0.00,CLR,,0.00,WeatherDisplay:10.37,2013-05-21 20:52:00,
2013-05-21 16:57:00,80.6,72.3,29.92,NNE,23,9.2,9.2,76,0.00,CLR,,0.00,WeatherDisplay:10.37,2013-05-21 20:57:00,
2013-05-21 17:03:00,81.5,73.2,29.92,ENE,58,6.0,6.0,76,0.00,CLR,,0.00,WeatherDisplay:10.37,2013-05-21 21:03:00,
2013-05-21 17:08:00,82.3,73.2,29.92,NNE,16,7.0,7.0,74,0.00,CLR,,0.00,WeatherDisplay:10.37,2013-05-21 21:08:00,
2013-05-21 17:13:00,82.1,72.2,29.92,NE,44,5.8,5.8,72,0.00,CLR,,0.00,WeatherDisplay:10.37,2013-05-21 21:13:00,
2013-05-21 17:18:00,81.9,71.6,29.92,NE,39,7.0,7.0,71,0.00,CLR,,0.00,WeatherDisplay:10.37,2013-05-21 21:18:00,
2013-05-21 17:23:00,82.2,71.4,29.92,ENE,68,6.9,6.9,70,0.00,CLR,,0.00,WeatherDisplay:10.37,2013-05-21 21:23:00,
2013-05-21 17:28:00,82.2,71.0,29.92,NE,55,4.0,4.0,69,0.00,CLR,,0.00,WeatherDisplay:10.37,2013-05-21 21:28:00,
2013-05-21 17:33:00,81.9,70.7,29.91,ENE,59,4.0,4.0,69,0.00,CLR,,0.00,WeatherDisplay:10.37,2013-05-21 21:33:00,
2013-05-21 17:39:00,81.9,71.2,29.91,ENE,60,3.5,3.5,70,0.00,CLR,,0.00,WeatherDisplay:10.37,2013-05-21 21:39:00,
2013-05-21 17:44:00,82.4,71.6,29.91,North,11,3.5,3.5,70,0.00,CLR,,0.00,WeatherDisplay:10.37,2013-05-21 21:44:00,
2013-05-21 17:49:00,83.0,72.2,29.91,WNW,284,1.2,0.0,70,0.00,CLR,,0.00,WeatherDisplay:10.37,2013-05-21 21:49:00,
2013-05-21 17:54:00,83.9,72.6,29.92,SW,231,3.0,3.0,69,0.00,CLR,,0.00,WeatherDisplay:10.37,2013-05-21 21:54:00,
2013-05-21 17:59:00,84.8,73.9,29.92,ESE,113,2.3,2.3,70,0.00,CLR,,0.00,WeatherDisplay:10.37,2013-05-21 21:59:00,
2013-05-21 18:04:00,85.3,74.0,29.92,SE,138,0.0,0.0,69,0.00,CLR,,0.00,WeatherDisplay:10.37,2013-05-21 22:04:00,
2013-05-21 18:09:00,85.6,73.4,29.93,NNW,347,1.0,1.0,67,0.00,CLR,,0.00,WeatherDisplay:10.37,2013-05-21 22:09:00,
2013-05-21 18:14:00,85.6,72.9,29.92,North,9,2.3,2.3,66,0.00,CLR,,0.00,WeatherDisplay:10.37,2013-05-21 22:14:00,
2013-05-21 18:20:00,85.6,72.9,29.92,North,354,3.5,3.5,66,0.00,CLR,,0.00,WeatherDisplay:10.37,2013-05-21 22:20:00,
2013-05-21 18:25:00,84.9,72.7,29.92,NW,324,1.2,0.0,67,0.00,CLR,,0.00,WeatherDisplay:10.37,2013-05-21 22:25:00,
2013-05-21 18:30:00,84.8,72.6,29.92,NW,318,3.5,3.5,67,0.00,CLR,,0.00,WeatherDisplay:10.37,2013-05-21 22:30:00,
2013-05-21 18:35:00,83.9,72.2,29.93,NW,304,4.0,4.0,68,0.00,CLR,,0.00,WeatherDisplay:10.37,2013-05-21 22:35:00,
2013-05-21 18:40:00,83.4,71.7,29.93,NNW,333,8.1,8.1,68,0.00,CLR,,0.00,WeatherDisplay:10.37,2013-05-21 22:40:00,
2013-05-21 18:45:00,83.0,71.3,29.93,NNW,336,5.8,5.8,68,0.00,CLR,,0.00,WeatherDisplay:10.37,2013-05-21 22:45:00,
2013-05-21 18:50:00,82.6,71.0,29.93,NNW,333,5.8,6.1,68,0.00,CLR,,0.00,WeatherDisplay:10.37,2013-05-21 22:50:00,
2013-05-21 18:56:00,82.1,70.9,29.93,NNW,347,6.9,6.9,69,0.00,CLR,,0.00,WeatherDisplay:10.37,2013-05-21 22:56:00,
2013-05-21 19:01:00,81.8,71.1,29.93,NNW,328,6.9,6.9,70,0.00,CLR,,0.00,WeatherDisplay:10.37,2013-05-21 23:01:00,
2013-05-21 19:06:00,81.4,70.7,29.93,NW,325,11.5,11.5,70,0.00,CLR,,0.00,WeatherDisplay:10.37,2013-05-21 23:06:00,
2013-05-21 19:11:00,80.8,71.3,29.94,NNW,328,11.5,11.5,73,0.00,CLR,,0.00,WeatherDisplay:10.37,2013-05-21 23:11:00,
2013-05-21 19:16:00,79.6,71.4,29.94,NNW,338,12.0,12.0,76,0.00,CLR,,0.00,WeatherDisplay:10.37,2013-05-21 23:16:00,
2013-05-21 19:21:00,78.6,70.4,29.94,NE,41,8.1,8.1,76,0.00,CLR,,0.00,WeatherDisplay:10.37,2013-05-21 23:21:00,
2013-05-21 19:26:00,78.0,69.8,29.94,NE,44,11.5,11.5,76,0.00,CLR,,0.00,WeatherDisplay:10.37,2013-05-21 23:26:00,
2013-05-21 19:31:00,77.5,69.7,29.94,NNW,337,8.1,8.1,77,0.00,CLR,,0.00,WeatherDisplay:10.37,2013-05-21 23:31:00,
2013-05-21 19:37:00,77.2,70.2,29.94,North,356,9.2,9.2,79,0.00,CLR,,0.00,WeatherDisplay:10.37,2013-05-21 23:37:00,
2013-05-21 19:42:00,76.7,70.4,29.94,NE,44,13.8,13.8,81,0.00,CLR,,0.00,WeatherDisplay:10.37,2013-05-21 23:42:00,
2013-05-21 19:47:00,76.2,70.7,29.94,NNE,33,8.1,8.1,83,0.00,CLR,,0.00,WeatherDisplay:10.37,2013-05-21 23:47:00,
2013-05-21 19:52:00,76.1,70.9,29.94,NNE,29,8.1,8.1,84,0.00,CLR,,0.00,WeatherDisplay:10.37,2013-05-21 23:52:00,
2013-05-21 19:57:00,75.9,70.7,29.94,North,356,10.4,10.4,84,0.00,CLR,,0.00,WeatherDisplay:10.37,2013-05-21 23:57:00,
2013-05-21 20:02:00,75.9,71.1,29.94,NNW,337,3.5,3.5,85,0.00,CLR,,0.00,WeatherDisplay:10.37,2013-05-22 00:02:00,
2013-05-21 20:08:00,75.8,71.0,29.95,NE,37,5.0,5.0,85,0.00,CLR,,0.00,WeatherDisplay:10.37,2013-05-22 00:08:00,
2013-05-21 20:13:00,75.8,71.0,29.96,East,82,6.9,6.9,85,0.00,CLR,,0.00,WeatherDisplay:10.37,2013-05-22 00:13:00,
2013-05-21 20:18:00,75.7,71.2,29.96,NE,43,4.6,4.6,86,0.00,CLR,,0.00,WeatherDisplay:10.37,2013-05-22 00:18:00,
2013-05-21 20:23:00,75.7,71.2,29.97,East,86,10.0,10.0,86,0.00,CLR,,0.00,WeatherDisplay:10.37,2013-05-22 00:23:00,
2013-05-21 20:28:00,75.6,71.1,29.97,NE,50,9.2,9.2,86,0.00,CLR,,0.00,WeatherDisplay:10.37,2013-05-22 00:28:00,
2013-05-21 20:33:00,75.3,71.2,29.98,ENE,70,10.4,10.4,87,0.00,CLR,,0.00,WeatherDisplay:10.37,2013-05-22 00:33:00,
2013-05-21 20:38:00,74.3,69.8,29.97,ENE,63,8.1,8.1,86,0.00,CLR,,0.00,WeatherDisplay:10.37,2013-05-22 00:38:00,
2013-05-21 20:43:00,73.6,69.5,29.95,NE,49,8.1,8.1,87,0.00,CLR,,0.00,WeatherDisplay:10.37,2013-05-22 00:43:00,
2013-05-21 20:48:00,73.2,69.8,29.95,NNE,21,10.4,10.4,89,0.00,CLR,,0.00,WeatherDisplay:10.37,2013-05-22 00:48:00,
2013-05-21 20:53:00,72.8,69.7,29.95,NE,38,4.6,4.6,90,0.00,CLR,,0.00,WeatherDisplay:10.37,2013-05-22 00:53:00,
2013-05-21 20:59:00,72.5,69.7,29.95,NE,47,5.8,5.8,91,0.00,CLR,,0.00,WeatherDisplay:10.37,2013-05-22 00:59:00,
2013-05-21 21:04:00,72.4,69.6,29.95,NE,54,4.6,4.6,91,0.00,CLR,,0.00,WeatherDisplay:10.37,2013-05-22 01:04:00,
2013-05-21 21:09:00,72.3,69.5,29.95,East,88,2.3,2.3,91,0.00,CLR,,0.00,WeatherDisplay:10.37,2013-05-22 01:09:00,
2013-05-21 21:14:00,72.1,69.3,29.95,NNW,342,2.3,2.3,91,0.00,CLR,,0.00,WeatherDisplay:10.37,2013-05-22 01:14:00,
2013-05-21 21:19:00,72.0,69.5,29.95,NNE,19,3.5,3.5,92,0.00,CLR,,0.00,WeatherDisplay:10.37,2013-05-22 01:19:00,
2013-05-21 21:24:00,72.0,69.5,29.96,NNE,23,5.8,5.8,92,0.00,CLR,,0.00,WeatherDisplay:10.37,2013-05-22 01:24:00,
2013-05-21 21:29:00,72.0,69.5,29.96,NE,39,2.3,2.3,92,0.00,CLR,,0.00,WeatherDisplay:10.37,2013-05-22 01:29:00,
2013-05-21 21:35:00,72.0,69.5,29.96,NE,49,3.5,3.5,92,0.00,CLR,,0.00,WeatherDisplay:10.37,2013-05-22 01:35:00,
2013-05-21 21:40:00,72.2,69.7,29.96,NNE,33,4.6,4.6,92,0.00,CLR,,0.00,WeatherDisplay:10.37,2013-05-22 01:40:00,
2013-05-21 21:45:00,72.2,69.7,29.96,NNE,29,6.9,6.9,92,0.00,CLR,,0.00,WeatherDisplay:10.37,2013-05-22 01:45:00,
2013-05-21 21:50:00,72.1,69.6,29.96,NNE,30,6.0,6.1,92,0.00,CLR,,0.00,WeatherDisplay:10.37,2013-05-22 01:50:00,
2013-05-21 21:55:00,72.0,69.5,29.96,NNE,27,5.8,5.8,92,0.00,CLR,,0.00,WeatherDisplay:10.37,2013-05-22 01:55:00,
2013-05-21 22:00:00,72.0,69.5,29.95,NNE,27,5.8,5.8,92,0.00,CLR,,0.00,WeatherDisplay:10.37,2013-05-22 02:00:00,
2013-05-21 22:05:00,72.0,69.5,29.95,NE,53,5.0,5.0,92,0.00,CLR,,0.00,WeatherDisplay:10.37,2013-05-22 02:05:00,
2013-05-21 22:11:00,71.9,69.4,29.96,NE,44,5.8,5.8,92,0.00,CLR,,0.00,WeatherDisplay:10.37,2013-05-22 02:11:00,
2013-05-21 22:16:00,71.9,69.4,29.96,NE,47,6.9,6.9,92,0.00,CLR,,0.00,WeatherDisplay:10.37,2013-05-22 02:16:00,
2013-05-21 22:21:00,71.8,69.3,29.96,NE,51,5.8,5.8,92,0.00,CLR,,0.00,WeatherDisplay:10.37,2013-05-22 02:21:00,
2013-05-21 22:26:00,71.7,69.3,29.96,NNE,19,4.6,4.6,92,0.00,CLR,,0.00,WeatherDisplay:10.37,2013-05-22 02:26:00,
2013-05-21 22:32:00,71.7,69.3,29.96,NE,53,4.0,4.0,92,0.00,CLR,,0.00,WeatherDisplay:10.37,2013-05-22 02:32:00,
2013-05-21 22:37:00,71.7,69.3,29.96,NE,47,4.0,4.0,92,0.00,CLR,,0.00,WeatherDisplay:10.37,2013-05-22 02:37:00,
2013-05-21 22:42:00,71.6,69.2,29.96,ENE,66,3.5,3.5,92,0.00,CLR,,0.00,WeatherDisplay:10.37,2013-05-22 02:42:00,
2013-05-21 22:47:00,71.6,69.2,29.96,NE,47,4.0,4.0,92,0.00,CLR,,0.00,WeatherDisplay:10.37,2013-05-22 02:47:00,
2013-05-21 22:52:00,71.5,69.1,29.96,NNE,29,3.5,3.5,92,0.00,CLR,,0.00,WeatherDisplay:10.37,2013-05-22 02:52:00,
2013-05-21 22:57:00,71.4,69.0,29.95,NE,42,4.6,4.6,92,0.00,CLR,,0.00,WeatherDisplay:10.37,2013-05-22 02:57:00,
2013-05-21 23:02:00,71.3,69.2,29.95,NE,49,3.5,3.5,93,0.00,CLR,,0.00,WeatherDisplay:10.37,2013-05-22 03:02:00,
2013-05-21 23:07:00,71.2,69.1,29.95,NNE,33,3.5,3.5,93,0.00,CLR,,0.00,WeatherDisplay:10.37,2013-05-22 03:07:00,
2013-05-21 23:12:00,71.2,69.1,29.95,NE,53,4.6,4.6,93,0.00,CLR,,0.00,WeatherDisplay:10.37,2013-05-22 03:12:00,
2013-05-21 23:17:00,71.1,69.0,29.95,NNE,25,5.8,5.8,93,0.00,CLR,,0.00,WeatherDisplay:10.37,2013-05-22 03:17:00,
2013-05-21 23:22:00,71.1,69.0,29.95,NE,49,4.6,4.6,93,0.00,CLR,,0.00,WeatherDisplay:10.37,2013-05-22 03:22:00,
2013-05-21 23:27:00,71.0,68.9,29.95,ENE,64,3.5,3.5,93,0.00,CLR,,0.00,WeatherDisplay:10.37,2013-05-22 03:27:00,
2013-05-21 23:32:00,70.9,68.8,29.95,NE,36,4.6,4.6,93,0.00,CLR,,0.00,WeatherDisplay:10.37,2013-05-22 03:32:00,
2013-05-21 23:38:00,70.8,69.0,29.95,NE,49,4.6,4.6,94,0.00,CLR,,0.00,WeatherDisplay:10.37,2013-05-22 03:38:00,
2013-05-21 23:43:00,70.7,68.9,29.95,NNE,30,5.0,5.0,94,0.00,CLR,,0.00,WeatherDisplay:10.37,2013-05-22 03:43:00,
2013-05-21 23:48:00,70.7,68.9,29.95,North,6,3.5,3.5,94,0.00,CLR,,0.00,WeatherDisplay:10.37,2013-05-22 03:48:00,
2013-05-21 23:53:00,70.6,68.8,29.95,NNE,23,5.0,5.0,94,0.00,CLR,,0.00,WeatherDisplay:10.37,2013-05-22 03:53:00,
2013-05-21 23:58:00,70.6,68.8,29.94,NE,56,3.5,3.5,94,0.00,CLR,,0.00,WeatherDisplay:10.37,2013-05-22 03:58:00,